Weather Roundup
Issued by NWS Chicago, IL

Home | Current Version | Previous Version | Text Only | Print | Product List | Glossary On
Versions: 1 2 3 4 5 6 7 8 9 10 11 12 13 14 15 16 17 18 19 20 21 22 23 24 25 26 27 28 29 30 31 32 33 34 35 36 37 38 39 40 41 42 43 44 45 46 47 48 49 50
000
NZUS59 KLOT 300310
HRRLOT

CHICAGO AREA WEATHER ROUNDUP
NATIONAL WEATHER SERVICE CHICAGO/ROMEOVILLE IL
900 PM CST THU JAN 29 2015

NOTE: "FAIR" INDICATES FEW OR NO CLOUDS BELOW 12,000 FEET WITH NO
SIGNIFICANT WEATHER AND/OR OBSTRUCTIONS TO VISIBILITY.

* THESE STATIONS ARE NOT UNDER NWS QUALITY CONTROL. THEY ALSO MAY NOT
  REPORT WEATHER SUCH AS PRECIPITATION OR FOG.

ILZ005-006-012>014-019>023-300400-
NORTHEAST ILLINOIS

CITY           SKY/WX    TMP DP  RH WIND       PRES   REMARKS
OHARE          CLOUDY    34  19  54 NW15      30.22R WCI  24
MIDWAY         CLOUDY    36  20  52 NW17      30.23R
AURORA         CLOUDY    34  21  59 NW17G28   30.25R WCI  23
LANSING*       CLOUDY    35  21  58 NW10G17   30.22R WCI  27
JOLIET*        CLOUDY    34  21  60 NW5       30.25R WCI  30
WAUKEGAN       CLOUDY    33  18  53 NW13G25   30.21R WCI  24
DUPAGE AIRPORT CLOUDY    33  22  63 NW10      30.23R WCI  25
WHEELING       CLOUDY    34  18  52 NW20G28   30.24R WCI  23
KANKAKEE*      CLOUDY    34  26  71 NW12      30.25R WCI  26
MORRIS*        CLOUDY    34  27  74 NW9       30.26R WCI  27
LEWIS AIRPORT* CLOUDY    34  20  57 NW12G17   30.24R WCI  25
NORTHERLY IS     N/A     35  20  54 W12         N/A  WCI  27
$$

WIZ051-052-058>065-066-070>072-300400-
SOUTHEAST WISCONSIN

CITY           SKY/WX    TMP DP  RH WIND       PRES   REMARKS
MILWAUKEE      FLURRIES  31  17  56 N20G26    30.23R WCI  19
KENOSHA*       CLOUDY    33  19  56 NW17G25   30.22R WCI  22
RACINE*        CLOUDY    32  18  56 N14G22    30.24R WCI  22
BURLINGTON     CLOUDY    30  19  62 N18G25    30.24R WCI  18
WAUKESHA       FLURRIES  28  19  69 N14       30.25R WCI  17
WEST BEND      CLOUDY    28  12  50 N13G28    30.25R WCI  18
$$

INZ001>003-010>013-019-020-300400-
NORTHWEST INDIANA

CITY           SKY/WX    TMP DP  RH WIND       PRES   REMARKS
GARY*          CLOUDY    37  16  42 NW22      30.22R
MICHIGAN CITY* NOT AVBL
RENSSELAER*    NOT AVBL
VALPARAISO     CLOUDY    34  21  59 NW10G20   30.19R WCI  26
$$

LMZ740>746-300400-
SOUTHERN LAKE MICHIGAN

STATION/POSITION TIME  SKY/WX   TEMP WIND        PRES    VSBY
                                AIR  DIR/SP/G
                 (UTC)          (F)  (DEG/KT/KT) (MB)    (MI)
HARRISON CRIB    0300            35  310/ 18/ 22   N/A
BURNHAM HARBOR   0300            35  360/  7/ 19   N/A
CALUMET HARBOR   0300            35  290/ 11/ 15   N/A
BURNS HARBOR     NOT AVBL
MICHIGAN CITY    0300            34  280/ 22/ 25   N/A
$$

ABBREVIATIONS USED IN REMARKS
   TC - TEMPERATURE IN CELSIUS
  WCI - WIND CHILL INDEX
   HX - HEAT INDEX
  VSB - VISIBILITY
$$



USA.gov is the U.S. government's official web portal to all federal, state and local government web resources and services.